Regional Weather Roundup
Issued by NWS Albany, NY

Home | Current Version | Previous Version | Text Only | Print | Product List | Glossary On
Versions: 1 2 3 4 5 6 7 8 9 10 11 12 13 14 15 16 17 18 19 20 21 22 23 24 25 26 27
000
ASUS41 KALY 281610
RWRALY

NEW YORK STATE HOURLY WEATHER ROUNDUP
NATIONAL WEATHER SERVICE ALBANY NY
1200 PM EDT THU JUL 28 2016

NOTE: "FAIR" INDICATES FEW OR NO CLOUDS BELOW 12,000 FEET WITH NO
SIGNIFICANT WEATHER AND/OR NO OBSTRUCTIONS TO VISIBILITY.

NYZ032-033-038>043-046>054-057>066-NYZ062>081-082-084-281700-
EAST


CITY           SKY/WX    TMP DP  RH WIND       PRES   REMARKS
ALBANY         CLOUDY    85  64  49 S7        29.90F
GLENS FALLS    CLOUDY    82  68  62 SE7       29.90S
POUGHKEEPSIE   MOSUNNY   89  65  44 VRB3      29.90F HX  91
NEWBURGH       MOSUNNY   86  68  54 CALM      29.94F
MONTGOMERY     PTSUNNY   87  66  49 CALM      29.91F
WHITE PLAINS   PTSUNNY   88  62  41 NW6       29.92F
ISLIP          PTSUNNY   87  71  58 S18       29.90F HX  93
NEW YORK CITY  PTSUNNY   92  61  35 NW5       29.89F HX  92
CENTRAL PARK   MOSUNNY   90  61  37 VRB3      29.93F HX  90
$$

NYZ005>009-017-018-044>046-055-056-281700-
CENTRAL


CITY           SKY/WX    TMP DP  RH WIND       PRES   REMARKS
FULTON         SUNNY     85  66  53 NW5       29.91F
SYRACUSE       PTSUNNY   82  64  54 W7        29.90F
ROME           PTSUNNY   81  65  58 SW6       29.92F
ELMIRA         CLOUDY    82  62  50 VRB5      29.93F
BINGHAMTON     CLOUDY    79  59  50 CALM      29.97F
MONTICELLO     CLOUDY    82  66  57 S5        29.98F
$$

NYZ026>034-041>043-087-281700-
NORTH


CITY           SKY/WX    TMP DP  RH WIND       PRES   REMARKS
WATERTOWN      CLOUDY    83  66  56 W8        29.90F
FORT DRUM      NOT AVBL
MASSENA        CLOUDY    75  66  73 N5        29.92S
SARANAC LAKE   RAIN      68  66  93 CALM      29.95F FOG
PLATTSBURGH    CLOUDY    77  66  68 SE3       29.90R
$$

NYZ001>004-010>016-019>021-085-281700-
WEST


CITY           SKY/WX    TMP DP  RH WIND       PRES   REMARKS
NIAGARA FALLS  CLOUDY    83  62  49 CALM      29.91F
BUFFALO        CLOUDY    82  65  56 CALM      29.92S
DUNKIRK        PTSUNNY   80  66  62 N8        29.93S
JAMESTOWN      CLOUDY    75  63  64 S3        29.97F
WELLSVILLE     CLOUDY    81  60  48 W6        30.01S
ROCHESTER      PTSUNNY   85  61  44 CALM      29.92F
PENN YAN       CLOUDY    81  63  54 CALM      29.95S
$$

             KEY
       WCI = WIND CHILL INDEX
       VSB = VISIBILITY
       HX  = HEAT INDEX
$$




USA.gov is the U.S. government's official web portal to all federal, state and local government web resources and services.